Weather in Moskalensky

Russia / Omsk Oblast     54°53′15″N   72°19′41″E
temp.,
°C
wind,
m/s
gust,
m/s
humid.,
%
clouds,
%
prec.,
mm/h
press.,
hPa
HPBL,
m
8 march, mon
mon800:00+1ssw101890100 2.8 1000970
03:000ssw101797100 1.8 9981029
06:000sw91397100 3.6 999775
09:00−10wnw71291100 0.3 1003508
12:00−10wnw71189100 0.3 1008555
15:00−8w6118476 0.0 1011787
18:00−10wsw5118645 0.0 1014367
21:00−12sw61191100 0.0 1015414
9 march, tue
tue900:00−13sw5138898 0.0 1016376
03:00−12sw6138892 0.0 1016513
06:00−14sw5139295 0.1 1016355
09:00−12ssw61292100 0.0 1015433
12:00−9ssw71291100 0.1 1015554
15:00−6sw81386100 0.0 1013763
18:00−6sw71484100 0.0 1013736
21:00−8sw6158684 0.0 1013561
10 march, wed
wed1000:00−8sw5129292 0.0 1014386
03:00−10sw4995100 0.0 1014203
06:00−10wsw2396100 0.0 101351
09:00−9sse2296100 0.0 101252
12:00−7se3595100 0.4 1010287
15:00−6e4695100 1.5 1005443
18:00−6e3594100 2.4 1001470
21:00−8nw1197100 0.5 100122
11 march, thu
thu1100:00−9wsw479699 0.8 1001147
03:00−10sw489590 0.1 1002206
06:00−9ssw5129593 0.5 1003504
09:00−12sw71491100 0.1 1004551
12:00−11sw81287100 0.2 1006743
15:00−10sw7128197 0.0 1007955
18:00−11sw5128499 0.0 1007684
21:00−15wsw5129198 0.0 1009462
12 march, fri
fri1200:00−17wsw6129489 0.1 1010431
03:00−17wsw5119598 0.1 1012349
06:00−21wnw5109599 0.1 1016276
09:00−25w499481 0.0 1020238
12:00−22wsw478965 0.0 1023261
15:00−18sw58896 0.0 1024401
18:00−19sw369411 0.0 1026159
21:00−23sw44960 0.0 102864